{"data":{"norad_id":63324,"epoch":"2026-05-25T04:46:22.520928Z","epoch_age_seconds":61435,"freshness":"FRESH","line1":"1 63324U 25057T   26145.19887177  .00015300  00000+0  56418-3 0  9998","line2":"2 63324  43.0014 318.3252 0002415 277.9006  82.1572 15.27590658 67487","mean_motion":15.27590658,"eccentricity":0.0002415,"inclination_deg":43.0014,"raan_deg":318.3252,"arg_perigee_deg":277.9006,"mean_anomaly_deg":82.1572,"bstar":0.00056418,"rev_number":6748,"period_min":94.266091014547,"perigee_km":481.36021360398,"apogee_km":484.67415107405,"semimajor_km":6861.154182339,"source":"CELESTRAK","updated_at":"2026-05-25T13:38:19.959577Z"}}